Location: ?hsaniye
(36.9814°N, 30.8538°E)
Time: 06:22:27
(UTC+00:00)

Daily predictions for brighter satellites

Satellite Brightness Start Highest point End
(mag) Time Altitude Azimuth Time Altitude Azimuth Time Altitude Azimuth
FALCON 9 DEB 4.4 15:26:51 10° WSW 15:29:51 34° NW 15:32:51 10° NNE
CZ-4B R/B 3.4 15:25:57 10° SSE 15:31:35 84° WSW 15:37:09 10° NNW
Cosmos 1606 Rocket 3.5 15:28:17 10° S 15:32:37 81° E 15:37:01 10° N
Helios 1A Rocket 4.3 15:30:45 10° ESE 15:33:37 18° ENE 15:36:28 10° NNE
CZ-4B R/B 1.2 15:31:59 10° N 15:35:11 87° WNW 15:38:16 10° SSW
Cosmos 1656 4.0 15:31:50 10° S 15:37:04 46° ESE 15:42:24 10° NE
OAO 2 Rocket 3.8 15:33:03 10° WSW 15:37:52 48° SSE 15:42:37 10° E
BREEZE-M DEB (TANK) 4.0 15:36:02 10° S 15:38:21 16° SE 15:39:57 10° E
Okean-O 3.9 15:35:30 10° ESE 15:38:43 20° ENE 15:41:57 10° NNE
AQUARIUS 4.3 15:35:51 10° S 15:40:20 82° WSW 15:44:51 10° NNW
H-2A R/B 3.7 15:40:37 10° E 15:43:40 15° ENE 15:46:44 10° NNE
SKYMED 2 3.7 15:41:14 10° NNE 15:45:30 51° E 15:49:42 10° S
Cosmos 1400 Rocket 3.0 15:41:54 10° S 15:45:54 53° E 15:49:54 10° NNE
Atlas Centaur 2 3.8 15:39:42 10° SW 15:47:24 44° SSE 15:54:57 11° E
Meteor 2-16 Rocket 4.4 15:42:36 10° N 15:48:39 63° E 15:54:40 10° SSE
Cosmos 2227 Rocket 3.1 15:44:38 10° N 15:49:27 28° ENE 15:54:14 10° ESE
CZ-4 R/B 2.5 15:47:34 10° ESE 15:50:32 21° ENE 15:53:30 10° NNE
Cosmos 1689 Rocket 2.1 15:48:54 10° NNE 15:51:43 50° E 15:54:31 10° S
Milstar 3 3.6 15:45:18 10° WSW 15:52:10 41° S 15:58:19 11° ESE
PSLV R/B 4.1 15:50:30 10° NNE 15:54:34 52° E 15:58:34 10° S
BREEZE-M DEB (TANK) 4.0 15:52:38 10° SSW 15:55:54 44° SE 16:04:59 10° NE
Cosmos 2058 4.2 15:53:12 10° NNE 15:56:07 18° ENE 15:58:48 11° ESE
Cosmos 1892 3.7 15:55:26 10° NNE 15:58:44 26° ENE 16:02:02 10° SE
NOSS 3-3 (A) 4.1 15:54:54 10° S 16:00:15 47° ESE 16:06:09 10° NE
NOSS 3-3 (C) 4.1 15:54:58 10° S 16:00:22 47° ESE 16:06:17 10° NE
Cosmos 1697 Rocket 3.2 15:56:14 10° S 16:01:22 38° ESE 16:06:30 10° NE
Cosmos 1408 4.1 16:00:55 10° NNE 16:02:50 18° ENE 16:02:50 18° ENE
IRS-1C Rocket 4.0 15:58:58 10° SSE 16:04:10 65° ENE 16:09:24 10° N
OAO 3 Rocket 3.8 15:59:51 10° W 16:04:31 51° SSW 16:08:31 13° ESE
Cosmos 1300 3.9 16:01:20 10° SSW 16:05:00 45° W 16:08:40 10° N
Cosmos 2058 Rocket 3.1 16:01:21 10° S 16:05:49 89° W 16:10:20 10° N
SeaSat 1 4.3 16:06:39 13° NE 16:06:39 13° NE 16:08:42 10° NNE
Cosmos 1953 Rocket 3.7 16:03:03 10° N 16:07:29 77° W 16:11:55 10° S
CZ-2D R/B 3.3 16:06:24 10° SSE 16:10:05 51° ENE 16:13:48 10° N
NOAA 11 4.5 16:05:24 10° S 16:10:50 72° WSW 16:16:16 10° NNW
Cosmos 1315 Rocket 3.2 16:13:23 10° SSE 16:17:01 38° E 16:20:29 11° NNE
Cosmos 1346 Rocket 3.5 16:13:34 10° NNE 16:17:08 31° ENE 16:18:27 25° ESE
Aureole 3 Rocket 3.5 16:18:31 10° SSW 16:22:04 59° W 16:26:53 10° N
H-2A R/B 4.5 16:22:12 10° S 16:22:57 10° S 16:23:51 10° SSE
Cosmos 1980 Rocket 2.9 16:19:13 10° SSE 16:24:02 30° ESE 16:25:26 27° ENE
Cosmos 968 Rocket 3.6 16:21:52 10° N 16:26:56 50° ENE 16:31:14 14° SE
S3M 3.9 16:21:41 10° S 16:27:42 66° E 16:33:47 10° NNE
Cosmos 2297 Rocket 2.1 16:23:52 10° NNW 16:29:33 73° ENE 16:35:11 10° SSE
CSL-04 Debris 4.5 16:25:54 10° SE 16:30:59 43° ENE 16:36:07 10° N
In-Cosmos 22 Rocket 4.1 16:26:41 10° N 16:32:05 89° W 16:37:35 10° S
MOS 1 Rocket 3.4 16:27:43 10° NNE 16:32:22 53° E 16:37:18 10° S
Cosmos 1340 2.9 16:29:01 10° NNW 16:32:47 69° W 16:36:31 10° S
COSMO-SKYMED 1 3.8 16:29:23 10° N 16:33:29 42° WNW 16:37:34 10° SW
Cosmos 1076 Rocket 4.3 16:31:57 10° N 16:34:43 31° NE 16:34:43 31° NE
Cosmos 2360 4.1 16:34:14 10° S 16:39:51 64° ESE 16:44:08 18° NNE
SL-08 ROCKET BODY 4.3 16:33:48 10° N 16:39:57 79° E 16:46:08 10° S
ASTRO E2 3.6 16:37:29 10° WSW 16:41:06 35° S 16:41:37 33° SSE
YAOGAN 1 2.4 16:38:56 10° SSE 16:43:14 81° ENE 16:47:34 10° N
GPS 2-04 Rocket1 3.4 16:40:01 10° SW 16:43:51 40° SSE 16:44:05 40° SSE
Cosmos 1486 Rocket 3.9 16:41:47 10° NNW 16:47:09 82° ENE 16:52:14 11° SSE
CZ-2C R/B 3.2 16:43:28 10° SSE 16:49:18 87° ENE 16:55:01 10° NNW
Cosmos 1812 Rocket 3.4 16:45:58 10° S 16:50:22 77° E 16:53:14 21° NNE
Cosmos 2278 3.7 16:47:40 10° S 16:53:13 59° ESE 16:54:45 44° NE
Cosmos 1455 2.4 16:49:45 10° SSW 16:53:29 66° W 16:56:10 18° N
Cosmos 44 Rocket 3.1 16:51:09 10° SSW 16:55:51 79° ESE 16:56:39 61° NE
Cosmos 1503 Rocket 4.0 16:51:48 10° N 16:56:47 55° ENE 16:56:47 55° ENE
Cosmos 2219 3.8 16:54:06 10° NNW 16:59:44 57° WSW 17:05:20 10° S
Meteor 2-10 Rocket 4.2 16:55:14 10° SSW 17:00:30 55° W 17:05:36 10° N
OAO 1 Rocket 4.4 16:56:05 10° W 17:01:26 73° S 17:02:05 64° SE
Cosmos 1354 Rocket 4.3 17:03:15 10° N 17:07:26 50° NNE 17:07:26 50° NNE
Cosmos 2082 3.6 17:02:51 10° NNW 17:08:35 69° ENE 17:08:49 68° E
ARGOS 3.1 17:13:10 70° NE 17:13:10 70° NE 17:18:13 10° N
Okean-O 4.3 17:10:57 10° SSW 17:14:56 33° W 17:18:57 10° NNW
Cosmos 2369 4.3 17:11:17 10° SW 17:16:53 56° WNW 17:21:10 17° N
OAO 2 Rocket 3.7 17:17:29 10° W 17:21:37 58° WSW 17:21:37 58° WSW
H-2A R/B 2.4 17:18:13 17° S 17:22:26 67° W 17:27:52 10° NNW
GEOS 3 Rocket 4.0 17:24:33 55° N 17:24:33 55° N 17:28:52 10° NNW
CZ-4 R/B 3.7 17:22:19 10° SSW 17:25:27 23° W 17:28:33 10° NW
CSL-04 Rocket 4.2 17:26:01 14° S 17:30:45 57° W 17:36:12 10° NNW
Cosmos 2227 Rocket 3.5 17:28:21 10° NW 17:33:31 38° WSW 17:37:55 14° SSW
Atlas Centaur 2 3.2 17:28:36 10° WSW 17:36:53 55° S 17:37:32 54° SSE
Cosmos 2263 Rocket 4.4 17:34:37 10° N 17:35:33 14° N 17:35:33 14° N
SeaSat 1 4.2 17:46:27 24° NNW 17:46:27 24° NNW 17:48:26 10° NNW
H-2A R/B (2) 3.9 16:43:16 10° WSW 17:43:49 58° S 17:45:43 51° SSE
Cosmos 1980 Rocket 3.7 18:02:49 10° SW 18:07:18 33° WNW 18:07:18 33° WNW
ATLAS 2AS CENTAUR R/B 4.1 18:01:31 10° NNW 18:05:16 29° N 18:05:16 29° N
Milstar 3 4.4 18:28:51 10° WSW 18:31:53 25° SW 18:31:53 25° SW
